User: anonymous   Login
Location: Heilwood
(40.6210°N, 78.9150°W)
Time: 22:13:21
(UTC-04:00)
Language:

Iridium 4 Rocket - Orbit

View from above orbital plane
View from above orbital plane
View from above satellite
View from above satellite

Ground track
Ground track

The orbit data is extracted from the following two-line orbital elements,

1 24797U 97020F   15187.31888164  .00000488  00000-0  99358-4 0  9996
2 24797 086.8961 253.9559 0226813 169.7344 235.4363 14.43647326955233
Epoch (UTC): 06 July 2015 07:39:11
Eccentricity: 0.0226813
inclination: 86.8961°
perigee height: 585 km
apogee height: 908 km
right ascension of ascending node: 253.9559°
argument of perigee: 169.7344°
revolutions per day: 14.43647326
mean anomaly at epoch: 235.4363°
orbit number at epoch: 95523

The dashed part of the orbit path shows where the satellite is in the earth's shadow,  

DLR